Home > Weather > Toronto > Past weeks

Flag for Canada Weather for the Past 2 Weeks in Toronto, Ontario, Canada

Now
36 °F

Low clouds.


Feels Like: 27 °F
Forecast: 35 / 40 °F
Wind: 14 mph from East

Location: Toronto Pearson International Airport

Current Time: Feb 8, 2016 at 9:55:56 AM

Latest Report: Feb 8, 2016 at 9:00 AM


Visibility: 12 mi

Pressure: 29.71 "Hg

Humidity: 87%

Dew point: 32 °F

Location of TorontoLocation

Historic Weather in Toronto — Graph

°F

Toronto Temperature Yesterday

Maximum temperature yesterday: 43 °F (at 2:00 PM)
Minimum temperature yesterday: 28 °F (at 2:00 AM)
Average temperature yesterday: 35 °F

High & Low Weather Summary for the Past Weeks

 TemperatureHumidityPressure
High61 °F (Feb 3, 2:00 PM)100% (Feb 3, 7:00 AM)30.36 "Hg (Feb 3, 7:00 AM)
Low16 °F (Jan 29, 8:00 PM)39% (Feb 3, 4:00 PM)29.44 "Hg (Jan 31, 11:00 PM)
Average34 °F71%29.92 "Hg
* Reported Jan 24 8:00 AM — Feb 8 8:00 AM, Toronto, Weather by CustomWeather, © 2016

Note: Actual official high and low records may vary slightly from our data, if they occured in-between our weather recording intervals... More about our weather records

Advertising

Toronto Weather History for the Previous 24 Hours

 ConditionsComfort  
Time TempWeatherWind HumidityBarometerVisibility
8:00 AM
Mon, Feb 8
34 °FPartly sunny.10 mph87%29.71 "Hg8 mi
7:00 AM34 °FPassing clouds.12 mph87%29.72 "Hg10 mi
6:00 AM36 °FPartly cloudy.8 mph87%29.72 "Hg15 mi
5:00 AM36 °FLow clouds.10 mph87%29.72 "Hg15 mi
4:00 AM37 °FOvercast.10 mph81%29.74 "Hg15 mi
3:00 AM37 °FOvercast.8 mph87%29.76 "Hg15 mi
2:00 AM37 °FOvercast.8 mph81%29.77 "Hg15 mi
1:00 AM37 °FOvercast.7 mph81%29.79 "Hg15 mi
12:00 AM37 °FOvercast.7 mph81%29.82 "Hg15 mi
11:00 PM
Sun, Feb 7
39 °FMostly cloudy.5 mph75%29.84 "Hg15 mi
10:00 PM39 °FPassing clouds.9 mph75%29.85 "Hg15 mi
9:00 PM39 °FPartly cloudy.8 mph75%29.86 "Hg15 mi
8:00 PM39 °FPartly cloudy.8 mph75%29.89 "Hg15 mi
7:00 PM37 °FPartly cloudy.8 mph81%29.90 "Hg15 mi
6:00 PM39 °FPassing clouds.8 mph70%29.89 "Hg15 mi
5:00 PM39 °FBroken clouds.12 mph65%29.90 "Hg15 mi
4:00 PM41 °FMore clouds than sun.9 mph61%29.92 "Hg15 mi
3:00 PM41 °FOvercast.12 mph61%29.93 "Hg15 mi
2:00 PM43 °FMostly cloudy.9 mph57%29.94 "Hg15 mi
1:00 PM41 °FMostly cloudy.13 mph61%29.98 "Hg15 mi
12:00 PM39 °FMostly cloudy.13 mph65%30.01 "Hg15 mi
11:00 AM39 °FPartly sunny.7 mph61%30.03 "Hg15 mi
10:00 AM36 °FCloudy.6 mph70%30.03 "Hg12 mi
9:00 AM34 °FMostly cloudy.5 mph75%30.05 "Hg12 mi
Weather by CustomWeather, © 2016

See weather overviewHow to use our weather pages